Weather History for Chino, CA

Change the Weather History Date:

Thursday, September 5, 2013

  Actual Average Record
Temperature  
Mean Temperature 88 °F -  
Max Temperature 105 °F 90 °F 105 °F (2013)
Min Temperature 71 °F 56 °F 48 °F (2005)
Cooling Degree Days 22    
Growing Degree Days 38 (Base 50)    
Moisture  
Dew Point 54 °F    
Average Humidity 36    
Maximum Humidity 70    
Minimum Humidity 18    
Precipitation  
Precipitation 0.00 in - - ()
Sea Level Pressure  
Sea Level Pressure 29.85 in    
Wind  
Wind Speed 3 mph (WSW)    
Max Wind Speed 16 mph    
Max Gust Speed -    
Visibility 9 miles    
Events      
Averages and records for this station are not official NWS values.
T = Trace of Precipitation, MM = Missing Value Source: NWS Daily Summary

Daily Weather History Graph

Daily Weather History Graph

Search for Another Location

Airport:

Trip Planner

Search our weather history database for the weather conditions in past years. The results will help you decide how hot, cold, wet, or windy it might be!

Date:

Astronomy

Sep. 05, 2013 Rise Set
Actual Time 6:27 AM PDT 7:10 PM PDT
Civil Twilight 6:01 AM PDT 7:35 PM PDT
Nautical Twilight 5:31 AM PDT 8:05 PM PDT
Astronomical Twilight 5:01 AM PDT 8:36 PM PDT
Moon 6:40 AM PDT (9/5) 7:09 PM PDT (9/5)
Length of Visible Light 13h 33m
Length of Day
12h 43m
New Moon, 0% of the Moon is Illuminated
Sep 5
New Moon
Sep 12
First Quarter
Sep 19
Full
Sep 26
Last Quarter
Oct 4
New

Hourly Weather History & Observations

Time (PDT) Temp. Heat Index Dew Point Humidity Pressure Visibility Wind Dir Wind Speed Gust Speed Precip Events Conditions
12:53 AM 78.1 °F - 55.0 °F 45% 29.87 in 10.0 mi Calm Calm - N/A   Clear
1:53 AM 73.9 °F - 57.0 °F 55% 29.86 in 7.0 mi Calm Calm - N/A   Clear
2:53 AM 73.9 °F - 57.0 °F 55% 29.85 in 7.0 mi Calm Calm - N/A   Clear
3:53 AM 73.9 °F - 57.0 °F 55% 29.85 in 8.0 mi Calm Calm - N/A   Clear
4:53 AM 71.1 °F - 61.0 °F 70% 29.84 in 7.0 mi Calm Calm - N/A   Clear
5:53 AM 73.0 °F - 57.9 °F 59% 29.85 in 6.0 mi Calm Calm - N/A   Haze
6:53 AM 73.0 °F - 59.0 °F 61% 29.87 in 10.0 mi SE 3.5 mph - N/A   Scattered Clouds
7:53 AM 78.1 °F - 60.1 °F 54% 29.88 in 10.0 mi Calm Calm - N/A   Partly Cloudy
8:53 AM 84.0 °F 83.3 °F 57.0 °F 40% 29.89 in 10.0 mi Calm Calm - N/A   Clear
9:53 AM 90.0 °F 87.9 °F 55.0 °F 30% 29.88 in 10.0 mi Calm Calm - N/A   Partly Cloudy
10:53 AM 96.1 °F - 52.0 °F 22% 29.88 in 10.0 mi Calm Calm - N/A   Scattered Clouds
11:53 AM 100.9 °F 99.1 °F 54.0 °F 21% 29.87 in 8.0 mi NW 6.9 mph - N/A   Scattered Clouds
12:53 PM 104.0 °F 101.8 °F 53.1 °F 18% 29.85 in 10.0 mi Variable 6.9 mph - N/A   Scattered Clouds
1:53 PM 104.0 °F 102.3 °F 54.0 °F 19% 29.83 in 10.0 mi West 10.4 mph - N/A   Scattered Clouds
2:53 PM 104.0 °F 102.9 °F 55.9 °F 20% 29.80 in 10.0 mi WSW 16.1 mph - N/A   Scattered Clouds
3:53 PM 100.9 °F 100.0 °F 57.0 °F 23% 29.80 in 10.0 mi SW 13.8 mph - N/A   Scattered Clouds
4:53 PM 100.0 °F 99.2 °F 57.0 °F 24% 29.80 in 10.0 mi SW 13.8 mph - N/A   Scattered Clouds
5:53 PM 97.0 °F - 48.9 °F 19% 29.81 in 10.0 mi WSW 15.0 mph - N/A   Scattered Clouds
6:53 PM 91.9 °F - 48.9 °F 23% 29.82 in 10.0 mi WSW 10.4 mph - N/A   Scattered Clouds
7:53 PM 86.0 °F - 39.9 °F 20% 29.83 in 10.0 mi WSW 5.8 mph - N/A   Scattered Clouds
8:53 PM 84.0 °F - 41.0 °F 22% 29.86 in 10.0 mi WNW 4.6 mph - N/A   Clear
9:53 PM 82.0 °F - 45.0 °F 27% 29.87 in 10.0 mi West 4.6 mph - N/A   Clear
10:53 PM 78.1 °F - 50.0 °F 37% 29.87 in 8.0 mi NNW 3.5 mph - N/A   Clear
11:53 PM 75.9 °F - 53.1 °F 45% 29.88 in 8.0 mi SE 3.5 mph - N/A   Clear